GEFSMW_con_prob3kmehi_276.txt.gz
EHI
16 14 10 12 20 29 31 29 27 27 30 30 27 25 23 20 20 22 22 18 13 10 8 8 9 11 9 7 6 6 7 8 6 2 2 3 4 5 7 9 12 12 12
19 18 15 16 24 33 34 32 30 30 29 27 25 24 22 20 20 23 23 18 13 11 9 10 11 11 10 7 6 6 5 6 5 3 2 2 2 4 5 7 10 12 12
20 20 19 19 26 35 38 36 36 35 29 25 23 22 22 21 22 26 25 19 15 12 11 12 12 11 11 9 8 6 4 4 4 3 2 1 1 2 4 6 8 8 9
18 20 21 21 24 32 37 40 42 40 33 27 25 23 22 21 22 25 24 20 16 13 11 11 12 12 13 12 10 9 8 6 5 4 3 2 2 3 5 6 6 6 6
18 22 27 27 24 26 33 41 47 46 39 30 26 25 21 18 19 22 23 20 17 14 11 10 12 14 15 14 12 11 11 11 10 8 6 5 4 4 6 7 7 6 5
19 25 33 35 29 26 32 42 49 50 44 33 27 24 19 17 18 21 23 19 17 15 12 10 11 14 15 15 15 14 13 14 13 11 9 9 7 6 7 8 7 5 4
20 27 36 40 36 32 36 44 51 51 44 35 29 25 20 18 20 23 22 18 15 15 16 15 15 16 16 15 16 18 18 17 13 11 11 11 9 8 8 7 6 5 4
20 27 35 39 38 39 42 49 55 53 45 39 34 31 25 20 21 23 21 17 13 14 19 22 22 20 17 15 17 20 20 18 14 12 12 10 9 9 8 6 6 6 5
18 22 29 32 35 41 47 52 57 56 48 42 38 34 29 24 20 21 21 18 14 13 19 24 24 22 18 15 15 16 15 14 13 11 10 9 8 8 7 6 7 7 7
16 18 21 25 31 40 48 54 59 61 53 46 40 34 32 29 23 21 21 21 18 16 18 20 20 20 18 16 15 13 10 9 9 8 8 9 9 7 5 5 7 9 9
16 17 19 24 31 38 46 53 60 62 57 49 43 40 38 34 28 25 24 24 22 20 19 18 16 17 17 16 16 14 9 7 7 8 9 9 8 6 4 4 6 8 9
19 19 22 28 34 39 44 51 57 59 55 51 48 46 43 38 33 30 28 26 24 23 22 20 18 16 16 14 14 13 11 8 8 10 10 9 8 7 7 7 7 7 8
23 24 28 36 41 44 47 51 53 52 51 50 50 48 45 40 35 32 31 27 24 23 23 21 20 17 14 12 12 12 12 11 9 10 13 13 11 10 11 11 10 8 7
28 31 38 46 52 54 53 53 52 49 49 51 51 48 45 40 36 33 30 27 24 22 21 20 18 14 11 11 12 12 13 11 10 11 14 17 16 13 12 12 11 10 9
34 39 47 56 62 63 60 57 53 50 51 51 49 47 44 40 37 32 29 27 24 21 20 19 16 12 9 10 11 13 12 12 13 13 13 16 16 13 10 9 10 10 10
40 45 53 61 66 68 66 60 55 53 53 51 48 46 45 40 35 30 28 27 25 23 22 22 18 12 8 7 9 11 12 14 17 17 14 13 13 12 9 7 6 7 8
48 50 54 59 63 65 64 58 55 56 55 52 48 46 44 40 34 30 29 29 28 27 25 25 22 16 9 5 5 7 11 16 19 19 17 15 14 13 12 9 7 6 6
55 53 50 52 54 56 55 53 53 56 56 53 50 47 43 38 35 33 33 32 31 28 25 25 25 20 12 6 2 4 10 16 18 19 18 17 15 15 15 14 12 11 10
56 52 46 45 49 50 50 49 51 53 53 52 50 47 42 38 36 36 36 35 32 27 24 25 25 23 16 8 2 4 11 15 17 17 16 15 14 14 13 14 16 14 13
52 50 45 46 49 52 53 52 50 51 51 51 49 47 43 40 38 36 35 35 33 30 27 27 26 25 19 11 3 4 10 15 16 15 13 12 11 10 10 12 15 14 12
51 49 48 50 54 56 58 57 53 51 51 50 50 49 45 40 38 37 34 33 34 34 32 30 27 25 21 13 5 3 8 13 16 15 13 11 9 7 6 9 12 12 10
49 49 50 54 58 60 60 59 56 53 51 51 52 52 48 41 37 36 35 35 36 36 34 30 25 23 21 15 7 2 4 8 13 14 11 8 6 3 2 4 6 6 5
47 47 50 55 59 60 59 57 55 54 53 53 54 54 50 43 38 36 37 39 40 35 32 28 24 21 21 19 12 5 1 3 7 9 7 4 2 1 1 1 1 2 3
45 45 49 54 57 57 56 55 55 56 56 55 54 53 50 44 39 37 38 40 39 34 30 27 23 22 22 21 17 12 6 4 5 7 6 4 3 2 2 2 2 3 5
43 43 45 50 53 54 53 54 56 60 60 57 53 48 45 41 39 37 35 34 32 28 24 22 20 18 17 16 15 14 12 10 9 10 11 11 9 7 6 8 8 8 10
41 41 43 47 50 51 52 53 57 61 63 58 50 43 40 38 36 35 31 26 23 20 16 15 14 11 9 8 9 11 12 10 9 12 16 16 14 11 11 13 13 13 14

GEFSMW_con_prob3kmehi_282.txt.gz
EHI
5 6 8 9 9 7 7 9 11 10 8 5 4 5 3 1 1 1 1 1 2 2 1 0 0 0 0 0 0 0 0 0 0 0 0 0 0 0 0 0 1 2 3
6 7 9 11 12 11 10 11 12 12 10 7 5 5 4 2 2 2 1 1 2 2 1 0 0 0 0 0 0 0 0 0 0 0 0 0 0 0 0 0 1 2 3
8 9 11 13 15 14 14 15 16 15 13 10 7 6 5 4 4 3 1 1 1 1 1 0 0 0 0 0 0 0 0 0 0 0 0 0 0 0 0 0 1 2 3
11 10 10 13 16 17 19 20 20 20 17 13 10 8 6 6 5 3 1 1 1 1 1 1 1 2 1 1 1 0 0 0 0 0 0 0 0 0 0 0 1 1 2
13 11 10 12 16 20 25 25 25 24 22 17 13 10 8 7 6 3 3 4 3 3 3 3 3 3 3 2 2 1 1 1 1 0 0 0 0 0 0 0 1 1 1
12 10 9 11 15 22 29 32 30 27 25 21 14 11 10 8 7 5 4 5 4 3 3 4 4 3 3 3 3 3 2 2 2 1 0 0 0 0 0 0 0 0 0
8 7 8 10 16 25 34 37 34 29 27 22 16 11 10 9 8 6 5 4 2 1 2 3 4 3 3 4 3 3 3 2 2 2 1 0 1 1 1 0 0 0 0
7 6 8 12 18 27 35 39 35 30 27 23 17 13 12 11 9 6 5 3 1 0 1 2 2 2 3 4 4 3 2 1 1 1 1 0 1 2 2 1 0 0 0
9 9 10 14 20 26 32 36 36 31 27 23 19 16 15 13 10 7 4 3 2 2 2 1 1 1 2 3 3 3 2 1 0 0 0 0 1 2 2 2 1 0 0
10 10 10 13 19 24 29 35 38 36 30 25 22 19 16 14 11 7 4 3 3 3 3 2 1 1 1 3 3 3 3 2 0 0 0 0 0 1 1 1 1 0 0
10 9 8 11 17 22 27 36 42 41 36 29 24 20 17 13 10 7 5 5 5 4 4 3 3 3 3 3 3 3 3 1 0 0 0 0 0 0 0 0 0 0 1
10 9 8 10 14 19 26 35 43 44 41 34 27 22 18 13 9 6 5 5 6 6 6 5 5 5 5 4 3 3 3 1 1 1 0 0 0 0 0 0 0 1 2
11 12 13 14 16 19 25 34 44 47 44 39 32 25 20 14 10 7 6 7 7 7 6 6 6 6 6 5 4 3 3 2 2 1 0 0 0 0 0 0 1 2 3
14 16 19 21 22 23 27 34 41 45 44 41 35 27 22 17 13 10 9 9 8 7 6 6 6 6 6 6 5 4 2 1 1 1 0 0 0 0 0 0 1 3 3
17 20 23 23 25 28 30 33 36 38 40 41 36 29 23 19 16 13 11 9 8 7 6 6 6 6 6 6 6 4 2 1 0 0 0 0 0 0 0 0 2 3 3
20 23 25 24 24 27 30 31 32 32 35 38 35 29 23 20 18 15 12 9 8 7 7 7 6 5 4 4 5 5 4 2 1 0 0 0 0 1 1 1 2 3 3
22 25 29 27 25 25 29 31 32 31 33 33 30 24 20 19 19 16 13 10 9 8 7 7 7 5 4 3 4 5 5 4 2 2 1 0 1 2 3 3 3 3 2
24 27 30 32 30 28 30 31 31 32 34 32 25 18 16 17 17 15 13 12 11 9 8 8 8 7 5 4 3 4 4 5 4 4 2 1 1 2 4 4 4 3 2
23 25 30 34 35 33 34 34 32 33 35 33 25 17 14 14 13 13 13 13 13 12 11 10 9 9 7 5 3 3 4 5 5 5 3 1 0 1 2 4 4 3 3
22 24 29 35 37 36 36 36 34 32 32 29 25 20 17 15 14 13 13 15 16 16 14 12 11 10 9 6 4 3 3 4 4 4 3 2 1 0 1 2 4 4 4
25 25 29 34 36 35 35 34 32 28 24 21 20 21 20 19 17 15 15 17 19 19 17 14 12 10 9 7 4 3 3 3 4 3 4 4 2 0 0 1 3 4 3
28 29 32 33 32 30 30 29 29 26 20 15 15 16 17 18 18 17 16 16 17 18 17 15 12 11 11 9 5 3 2 2 2 2 3 4 2 0 0 0 1 1 1
31 31 33 32 28 25 25 25 26 25 22 17 14 13 12 14 16 18 17 14 13 13 14 13 12 11 12 10 5 2 1 1 1 1 1 2 1 0 0 0 0 0 0
30 29 29 28 25 23 23 22 23 23 22 19 17 15 13 13 15 17 16 14 12 11 10 10 11 12 12 10 6 3 1 0 0 0 0 0 0 0 0 0 0 0 0
25 24 23 24 24 24 22 21 21 22 21 19 18 17 15 15 15 16 14 13 12 10 8 8 9 10 9 8 5 3 1 0 0 0 0 0 0 0 0 0 0 0 0
20 19 20 22 25 25 23 21 22 22 20 18 17 14 13 14 14 14 12 10 10 8 7 7 7 7 6 5 3 2 1 0 0 0 0 0 0 0 0 0 0 0 0

GEFSMW_con_prob3kmehi_288.txt.gz
EHI
1 2 3 2 1 0 0 0 0 0 0 0 0 0 0 0 0 0 0 0 0 0 0 0 0 0 0 0 0 0 0 0 0 0 0 0 0 0 0 0 0 0 0
2 2 2 1 0 0 0 0 0 0 0 0 0 0 0 0 0 0 0 0 0 0 0 0 0 0 0 0 0 0 0 0 0 0 0 0 0 0 0 0 0 0 0
2 2 1 0 0 0 0 0 1 1 1 1 2 2 2 2 1 0 0 0 0 0 0 0 0 0 0 0 0 0 0 0 0 0 0 0 0 0 0 0 0 0 0
1 1 1 2 2 1 1 1 2 2 3 4 6 6 5 4 2 0 0 0 0 0 0 0 0 0 0 0 0 0 0 0 0 0 0 0 0 0 0 0 0 0 0
0 1 2 3 3 3 3 3 3 3 4 7 9 9 7 6 4 1 1 1 0 0 0 0 0 0 0 0 0 0 0 0 0 0 0 0 0 0 0 0 0 0 0
1 1 3 4 4 5 5 5 4 3 5 9 12 12 10 8 6 4 3 2 1 0 0 0 0 0 0 0 0 0 0 0 0 0 0 0 0 0 0 0 0 0 0
2 3 4 4 4 4 5 6 5 4 6 11 15 15 12 9 7 5 4 3 1 0 0 0 0 0 0 0 0 0 0 0 0 0 0 0 0 0 0 0 0 0 0
3 4 5 5 4 3 4 5 6 6 8 13 16 15 13 9 7 5 4 3 1 0 0 0 0 0 0 0 0 0 0 0 0 0 0 1 1 0 0 0 0 0 1
3 3 4 5 4 3 3 4 5 7 10 13 15 15 13 11 8 6 4 3 1 1 1 0 0 0 0 0 0 0 0 0 0 0 0 1 1 1 0 0 0 0 1
3 3 3 4 3 3 2 2 4 7 9 12 14 14 13 12 9 6 5 3 3 3 3 2 1 0 0 0 0 0 0 0 0 0 1 1 1 1 0 0 0 0 1
3 3 3 3 3 2 1 1 3 6 9 11 13 13 12 11 8 6 4 3 3 4 5 5 4 2 1 0 0 0 0 0 0 1 1 0 0 0 0 0 0 0 0
3 3 3 3 3 2 1 3 5 8 10 12 14 13 11 9 7 4 3 3 4 5 6 6 6 4 3 1 1 1 1 1 1 1 1 0 0 0 0 0 0 0 0
3 2 2 3 3 3 4 7 9 11 12 14 15 14 11 8 6 4 3 4 5 6 7 6 6 6 5 4 3 3 2 2 2 1 0 0 0 0 0 0 0 0 0
3 3 3 3 3 4 7 10 13 15 15 15 15 15 12 9 6 4 4 5 6 7 6 6 6 6 6 6 5 4 3 2 1 0 0 0 0 0 0 0 0 0 0
2 3 4 4 4 6 9 13 17 18 17 16 15 14 13 9 6 5 6 6 6 6 6 5 4 5 6 6 5 5 3 2 1 0 0 0 0 0 0 0 0 0 0
1 3 4 5 6 8 11 15 18 19 18 17 15 14 12 9 6 5 7 8 7 7 6 4 3 4 5 4 4 4 3 3 2 1 0 0 0 0 0 0 0 0 0
2 4 6 6 7 9 12 15 16 16 15 15 15 13 12 9 5 4 6 9 9 8 7 5 4 4 4 3 3 3 3 3 3 2 1 0 0 0 0 0 0 0 0
4 6 8 8 8 10 12 13 13 12 12 15 16 15 12 9 6 5 6 8 9 9 8 6 4 4 3 3 3 3 3 3 4 3 1 0 0 0 0 0 0 0 0
6 7 8 9 9 10 12 14 13 12 13 17 18 17 13 9 6 5 5 6 7 8 8 6 4 4 4 3 1 1 3 4 5 4 2 0 0 0 0 0 0 0 0
8 7 8 9 10 12 14 15 14 13 14 17 19 17 13 10 7 4 3 5 7 8 7 5 4 4 4 3 1 1 3 4 5 5 3 1 0 0 0 0 0 0 0
8 7 8 9 11 13 16 16 14 12 14 16 17 16 13 10 6 4 4 4 6 7 6 4 3 3 4 3 1 1 4 5 6 6 5 3 1 0 0 0 0 0 0
9 9 9 10 11 12 15 15 13 13 14 15 15 14 12 8 6 6 5 5 6 6 5 3 3 4 4 3 1 1 2 4 5 7 6 4 1 0 0 0 0 0 0
11 13 14 12 10 11 13 12 13 15 16 14 13 11 10 7 7 7 6 5 5 5 4 4 4 5 6 5 3 2 1 1 4 6 5 3 1 0 0 0 0 0 0
11 13 16 15 12 12 11 9 11 14 14 12 10 9 8 7 6 6 5 4 5 4 4 5 6 7 7 7 6 5 3 2 3 4 4 2 1 0 0 0 0 0 0
7 9 13 14 12 12 11 9 8 10 10 10 8 7 7 6 5 5 4 4 4 3 3 3 4 5 5 5 6 6 5 3 3 3 3 3 2 1 1 1 1 0 0
4 6 9 11 11 12 12 9 7 6 7 8 7 6 6 5 5 5 5 3 3 2 1 1 2 2 2 3 3 3 3 3 2 2 3 3 3 2 2 2 2 1 0

GEFSMW_con_prob3kmehi_294.txt.gz
EHI
3 2 1 0 0 2 3 4 3 3 3 2 2 2 2 2 3 5 6 6 5 4 4 4 4 2 0 1 1 1 1 1 0 1 1 1 0 0 0 0 0 0 1
2 2 1 0 1 3 4 4 3 3 3 3 3 2 2 2 3 4 6 7 5 4 3 4 3 1 0 1 1 0 0 0 0 0 0 0 0 0 0 0 0 0 1
2 2 2 2 3 4 5 5 4 4 4 4 4 3 3 4 5 6 7 7 6 5 4 4 2 1 0 1 0 0 0 0 0 0 0 0 0 0 0 0 0 0 1
2 3 4 4 5 5 5 6 6 6 6 7 7 6 6 6 7 7 8 8 7 7 6 5 3 1 0 0 0 0 0 0 0 0 0 0 1 1 0 0 0 0 1
4 5 5 4 4 4 4 6 9 11 11 10 9 8 7 7 8 8 8 8 7 8 7 5 4 2 1 0 0 0 0 0 0 0 0 1 2 2 1 1 0 0 1
6 7 6 5 3 3 3 7 13 16 15 13 11 10 9 10 10 9 8 7 7 8 8 5 4 4 2 2 2 2 1 1 1 2 1 1 2 3 3 3 1 0 0
6 8 8 6 4 4 5 9 14 18 18 15 13 13 13 13 13 11 9 7 7 8 8 6 5 5 5 5 6 6 4 3 3 3 4 3 3 3 4 5 3 1 0
5 8 10 8 7 7 8 11 15 18 19 17 16 16 16 14 14 14 11 9 8 9 8 7 6 6 6 7 9 9 8 6 5 4 5 4 3 4 5 7 6 2 1
2 5 8 8 8 8 9 11 15 18 18 17 17 18 18 16 16 17 16 13 12 12 10 8 7 7 7 9 10 12 11 10 8 6 6 5 3 4 5 7 7 5 3
1 3 6 7 7 7 8 11 14 17 18 17 17 18 19 19 19 20 19 17 17 16 13 11 9 8 9 11 11 12 12 11 10 8 7 6 5 5 5 5 5 6 5
1 3 6 8 8 7 8 11 14 17 19 19 20 20 20 21 21 20 20 20 19 17 15 13 11 11 11 12 12 12 12 11 9 8 7 7 8 7 6 4 4 4 4
4 6 9 12 13 12 10 12 16 19 22 25 27 27 26 26 25 22 20 21 20 18 15 13 12 10 10 11 11 12 12 11 8 6 6 6 8 9 7 6 4 3 3
10 11 14 17 20 20 19 17 18 20 24 31 35 36 35 32 29 25 22 22 22 19 15 13 11 9 7 8 10 12 12 10 7 5 4 5 8 8 7 6 5 3 2
14 15 18 22 25 28 28 25 23 23 28 37 42 43 41 36 31 28 25 25 24 20 17 15 12 10 9 9 10 12 12 10 6 4 4 5 7 7 6 5 5 5 4
15 17 21 24 28 30 31 29 27 29 34 40 44 44 43 38 33 31 30 29 25 21 21 19 16 14 12 10 10 11 11 10 8 5 5 5 6 6 5 4 4 4 5
13 16 21 25 27 28 30 31 30 33 37 38 40 41 41 38 35 33 32 30 25 23 23 21 19 16 12 8 7 7 8 10 10 9 8 6 5 5 4 2 1 2 3
11 14 20 24 25 25 26 29 33 35 36 35 35 36 36 34 32 31 30 27 23 20 20 20 18 15 11 5 2 2 3 6 9 12 12 10 7 6 6 5 3 2 2
12 13 17 22 24 23 24 28 33 37 37 35 33 32 32 31 29 27 25 24 21 19 19 18 16 15 11 5 1 1 2 4 8 12 14 14 12 9 10 10 8 7 6
16 14 14 19 23 24 27 30 34 36 37 35 32 30 29 30 28 25 23 22 22 21 20 18 17 17 13 5 1 2 5 8 10 13 14 15 13 10 9 11 13 12 12
17 15 13 16 22 26 31 33 33 34 36 35 31 28 28 28 26 23 21 20 21 22 21 19 19 19 14 6 1 3 8 12 13 15 14 12 11 7 6 10 14 14 13
16 16 15 16 22 28 33 34 32 32 34 35 33 29 27 24 21 20 19 19 20 22 23 23 22 20 15 7 2 2 7 11 13 14 13 11 7 3 3 6 10 10 10
17 19 21 21 25 31 35 35 33 32 33 36 36 31 25 19 17 17 19 20 22 24 24 23 22 19 15 9 3 1 2 6 10 13 12 8 4 1 1 2 4 4 5
17 21 24 25 29 33 35 35 34 34 36 38 37 32 24 20 17 17 18 20 21 21 19 17 16 16 14 10 5 2 1 2 6 10 9 4 1 0 0 0 0 2 3
15 19 21 23 26 29 31 31 32 36 40 39 36 31 26 22 20 19 18 17 17 17 15 14 13 13 13 10 7 3 1 0 2 4 4 3 2 2 2 2 2 3 5
12 15 18 20 21 22 24 27 29 34 37 38 34 29 24 21 20 18 15 13 12 13 12 10 10 11 9 6 4 2 0 0 0 1 2 4 5 5 5 5 5 6 7
11 14 16 18 19 18 20 24 27 30 33 35 32 26 20 20 19 16 12 10 9 8 6 6 6 6 4 2 1 1 0 0 0 0 2 4 6 7 7 7 8 9 9

GEFSMW_con_prob3kmehi_300.txt.gz
EHI
18 16 13 13 19 25 26 22 18 18 18 17 15 13 13 14 15 15 16 16 14 12 11 10 10 10 9 8 5 4 3 3 2 1 2 6 8 9 11 11 9 10 12
22 21 18 17 22 29 29 25 23 21 19 18 15 12 12 14 15 15 15 15 15 14 12 12 12 10 9 9 7 5 4 2 1 0 1 3 6 8 9 11 10 11 12
24 26 24 22 26 31 32 30 28 26 23 20 17 14 14 14 14 14 14 16 17 16 14 14 11 8 7 9 9 7 5 3 1 1 2 3 5 6 8 10 10 11 12
23 26 27 26 26 29 32 34 33 31 28 24 20 19 17 15 14 14 15 17 19 18 17 16 13 9 7 8 9 9 6 4 3 4 6 7 8 8 8 8 8 8 9
22 24 27 29 26 25 30 37 40 39 34 29 24 21 18 16 15 16 16 17 19 19 20 20 18 14 12 11 10 10 10 9 7 7 9 10 12 12 9 7 6 5 5
20 22 27 31 29 25 29 39 47 47 42 34 28 24 21 19 18 19 18 17 17 19 21 22 20 17 17 16 13 12 14 14 12 11 11 11 13 13 9 5 5 5 4
16 20 27 33 32 28 29 41 52 53 47 39 33 29 26 23 22 22 20 18 17 19 23 23 20 19 18 16 14 13 15 15 15 14 13 13 13 13 9 6 5 4 3
12 17 27 34 33 30 30 41 53 54 47 41 38 35 31 26 25 24 22 18 19 22 25 25 23 21 18 15 14 13 13 14 14 14 14 13 13 13 9 6 5 3 2
9 13 22 30 31 30 33 43 51 52 47 43 42 39 36 31 29 28 25 22 24 28 29 27 24 23 21 18 16 14 13 13 13 13 14 13 12 10 7 5 4 2 1
11 13 19 24 28 31 37 45 52 53 50 47 44 42 40 37 34 33 30 29 32 34 31 26 23 22 22 20 18 16 14 12 12 13 14 14 12 9 6 4 3 3 2
17 20 22 25 29 33 37 45 52 54 53 50 48 47 47 43 38 37 36 36 39 39 34 27 23 21 20 20 19 17 14 12 12 13 14 13 12 10 7 5 4 3 3
21 25 28 30 32 33 37 44 49 50 50 51 54 54 53 49 43 40 40 42 43 41 36 30 26 23 21 20 19 17 14 12 11 12 13 11 11 10 8 6 4 3 3
21 25 30 34 35 36 41 44 44 43 45 49 54 57 57 54 50 44 43 45 44 41 38 34 29 26 24 22 21 18 15 13 12 12 13 12 11 12 11 9 6 5 4
20 24 31 35 38 41 44 44 41 39 43 47 52 56 56 56 54 48 44 43 41 38 37 33 28 25 24 23 22 20 17 14 14 14 14 15 15 15 14 11 8 7 7
20 26 33 37 40 42 43 42 40 42 46 49 51 54 54 54 54 50 45 41 39 37 36 31 25 21 20 19 19 17 16 16 16 16 17 17 16 15 13 9 7 8 8
22 26 33 39 42 43 43 42 42 45 49 52 51 51 52 51 50 48 44 40 39 39 37 30 23 19 15 12 11 11 13 16 17 18 18 16 14 13 12 9 7 6 7
20 22 28 35 39 41 42 42 42 45 49 52 51 50 50 48 46 46 44 41 41 41 36 29 24 20 14 8 4 5 10 14 17 18 19 15 13 13 15 13 10 9 9
15 17 21 26 29 33 38 40 41 41 45 48 48 47 47 46 45 44 43 43 44 41 35 28 25 22 15 6 1 2 6 12 16 17 18 16 13 14 15 14 12 13 13
11 12 15 19 23 28 35 39 38 38 40 42 43 44 46 46 46 44 44 45 44 39 34 30 27 25 18 7 0 1 5 10 15 18 18 17 14 11 11 11 12 13 14
7 8 12 19 22 26 34 40 38 37 38 38 40 43 45 45 45 45 45 44 41 36 33 32 31 29 22 9 1 2 6 10 14 17 17 14 10 7 6 8 10 11 12
9 9 13 20 23 25 32 37 37 39 41 40 40 41 41 40 40 42 43 40 37 34 34 35 35 32 25 13 3 2 6 9 12 13 13 9 4 2 2 4 7 9 10
13 14 18 21 22 22 28 33 35 38 41 43 42 40 38 35 35 37 37 35 33 33 35 36 34 31 26 17 7 2 2 5 8 9 8 4 1 0 0 1 3 5 6
14 16 19 22 21 22 26 30 32 34 37 41 42 39 36 34 33 33 32 31 31 31 33 33 30 28 26 20 11 3 1 1 4 5 4 1 0 0 0 0 1 2 3
13 14 18 21 22 24 26 29 31 32 34 36 38 36 34 32 30 29 29 28 27 28 28 28 26 24 23 21 14 7 3 2 1 1 1 1 0 1 1 1 2 3 5
12 13 15 18 21 24 26 30 33 35 34 34 34 32 29 26 25 25 23 21 20 19 19 19 19 17 16 14 11 7 4 2 1 0 0 1 1 2 3 4 5 6 7
12 13 14 15 17 21 26 31 35 37 35 34 33 30 25 23 23 23 19 15 13 10 9 10 11 11 8 6 5 4 3 2 1 0 0 1 2 3 5 6 6 7 7

GEFSMW_con_prob3kmehi_306.txt.gz
EHI
10 12 17 17 13 10 9 8 7 7 8 6 4 1 0 0 1 3 4 5 5 4 4 4 3 1 0 0 0 0 0 0 0 0 0 0 0 0 0 0 0 1 1
12 14 19 21 17 13 10 9 8 8 9 8 4 2 1 1 2 3 4 5 5 5 5 4 4 3 1 1 0 0 0 0 0 0 0 0 0 0 0 0 1 1 1
11 15 20 22 21 18 14 12 10 10 10 9 6 4 3 3 4 3 3 4 6 6 6 5 5 5 3 2 1 0 0 0 0 0 1 1 1 1 0 0 1 2 2
6 11 18 22 24 22 19 16 13 12 11 11 9 7 5 5 4 4 3 4 6 6 5 5 5 5 4 4 2 1 1 1 1 1 2 2 2 2 1 0 1 1 2
2 6 14 21 24 25 23 19 16 15 14 13 11 10 7 5 4 4 4 4 5 6 4 4 4 5 5 5 4 2 2 3 2 3 3 3 3 3 2 0 0 0 1
1 3 8 17 23 27 27 23 20 17 15 14 14 13 11 8 7 6 5 5 5 5 4 3 4 5 6 6 4 4 5 5 4 3 3 3 3 3 2 0 0 0 0
2 3 5 12 21 26 28 27 23 19 18 17 18 17 16 14 13 11 9 7 6 6 4 4 5 6 6 5 4 4 6 5 4 4 3 3 3 3 2 1 0 0 0
3 4 5 9 16 22 26 28 26 22 21 21 21 21 20 19 19 17 14 12 10 7 5 5 5 5 4 3 3 4 4 4 4 3 3 3 3 3 3 2 0 0 0
7 7 8 10 13 18 24 27 28 26 25 24 24 24 24 23 23 22 20 17 13 9 6 5 5 5 3 3 3 3 3 3 3 3 3 3 3 3 2 1 0 0 0
10 11 12 13 14 18 24 29 30 29 28 26 25 25 25 24 24 24 22 18 14 10 7 6 6 5 4 3 3 4 3 3 3 3 3 3 3 3 1 0 0 0 0
12 14 15 15 15 17 23 28 30 30 29 27 25 24 23 23 23 23 21 16 13 10 9 8 8 7 5 4 4 4 4 3 3 3 3 3 3 2 1 0 0 0 0
13 14 16 17 17 17 20 24 27 28 29 28 26 23 21 20 19 20 20 17 13 11 10 9 9 8 6 4 3 4 3 3 3 3 3 3 3 2 1 0 0 0 0
14 15 17 19 20 19 19 21 23 24 27 28 27 24 21 18 17 18 20 19 15 12 11 11 9 7 5 4 3 3 4 4 4 3 3 3 3 2 1 1 1 1 0
12 13 15 17 18 19 20 20 19 20 22 25 26 25 23 21 18 18 19 18 15 13 13 12 10 7 5 4 3 3 3 4 4 4 3 3 3 2 1 1 2 1 0
7 8 9 11 13 16 19 18 16 16 19 22 25 25 24 22 19 18 18 17 15 14 13 12 11 8 6 5 4 3 3 3 3 3 3 3 3 2 1 1 1 1 1
3 3 5 7 8 13 16 16 14 14 17 19 22 23 23 22 20 19 17 16 15 14 12 12 11 9 8 6 4 3 3 3 2 2 3 2 2 1 0 0 0 0 0
4 5 6 7 7 9 13 15 15 16 17 19 20 21 21 22 22 21 17 15 14 13 11 10 9 10 9 7 4 2 2 2 1 2 2 1 1 1 1 1 1 0 0
7 7 9 9 7 8 11 16 19 20 20 21 22 21 20 20 21 20 18 15 14 13 10 8 8 10 10 6 2 1 1 1 1 2 2 1 1 1 2 2 2 1 1
7 7 8 8 8 9 12 16 20 22 23 24 24 22 20 18 19 19 17 16 15 12 9 8 9 11 11 6 2 1 1 1 0 1 1 1 2 2 2 3 3 3 2
8 8 8 9 9 11 14 17 19 21 22 23 23 22 20 19 18 17 16 16 14 11 9 9 9 11 11 7 2 1 2 2 1 0 0 1 1 1 1 1 2 2 2
9 10 11 11 10 12 17 20 19 18 18 19 19 19 19 19 17 15 15 15 12 10 8 9 9 9 9 7 3 1 2 3 2 1 0 0 0 0 0 0 1 1 1
7 8 11 11 11 13 18 21 19 16 17 17 17 18 19 17 15 14 13 13 11 9 9 9 8 7 6 5 3 1 1 2 2 1 0 0 0 0 0 0 0 0 0
4 6 7 9 10 12 16 18 17 17 18 19 19 19 18 16 14 13 13 12 11 10 10 10 8 7 6 5 2 1 0 1 1 1 0 0 0 0 0 0 0 0 0
3 5 6 7 8 9 10 11 12 16 18 18 18 18 17 15 14 13 13 12 13 13 13 11 10 9 8 6 4 2 1 1 0 0 0 0 0 0 0 0 0 0 0
2 4 6 6 5 5 5 6 9 12 13 13 14 14 14 13 13 12 11 12 12 12 12 10 9 9 8 6 3 2 2 1 0 0 0 1 1 1 1 1 1 0 0
1 3 6 6 4 3 3 4 7 10 10 9 10 11 11 11 12 11 9 9 9 8 7 7 8 9 7 4 2 1 1 1 0 0 1 2 2 2 2 2 2 1 0

GEFSMW_con_prob3kmehi_312.txt.gz
EHI
0 0 0 1 1 1 2 1 2 2 2 2 1 0 0 0 0 0 1 1 0 1 2 3 3 2 1 0 0 0 0 0 0 0 0 0 0 0 0 0 0 0 0
0 0 1 2 2 3 4 4 3 3 3 2 1 0 0 0 1 1 2 2 1 1 2 2 2 2 1 0 0 0 0 0 0 0 0 0 0 0 0 0 0 0 0
1 1 1 2 3 5 7 7 4 3 3 3 2 2 2 2 2 3 3 3 2 2 2 2 1 1 0 0 0 0 0 0 0 0 1 1 1 0 0 0 0 0 0
0 0 1 2 4 6 8 7 4 3 4 4 5 5 5 5 4 3 3 3 3 3 3 2 1 0 0 0 0 0 0 0 1 1 2 2 2 1 1 0 0 0 0
0 0 1 2 4 6 7 6 5 4 5 6 6 7 7 6 4 3 2 2 3 3 2 1 1 1 0 0 0 0 0 0 1 2 3 3 3 3 2 1 0 0 0
1 0 1 2 3 4 6 7 7 6 6 6 7 8 8 7 5 3 2 2 3 3 2 0 0 1 0 0 0 0 0 0 1 2 3 3 3 3 3 2 1 0 0
1 0 0 1 1 2 4 7 8 9 8 8 8 9 9 9 7 5 4 3 3 3 2 1 1 2 1 0 0 0 0 0 0 1 2 3 3 3 3 3 2 1 0
1 1 1 1 1 1 3 5 7 9 10 9 8 9 10 10 8 6 5 4 3 3 2 1 2 3 2 0 0 0 0 0 0 1 2 3 3 3 3 3 3 1 0
3 3 4 4 3 2 3 3 5 7 9 9 8 8 9 9 7 5 4 5 4 4 3 3 4 3 2 1 0 0 0 0 1 2 3 3 3 3 3 3 3 2 1
4 5 6 6 5 5 4 3 3 4 6 7 7 7 7 7 6 5 5 5 5 5 5 5 6 5 2 1 1 1 1 1 2 3 3 3 3 3 3 3 2 1 0
4 5 5 6 6 6 4 2 1 2 3 4 5 6 6 6 6 7 7 7 6 6 6 6 7 6 4 3 3 3 2 2 2 3 3 3 3 3 3 3 1 0 0
2 2 3 4 4 4 3 1 0 0 2 3 3 3 4 5 7 8 8 8 8 7 7 7 8 8 6 5 4 4 3 3 3 3 3 3 3 3 3 2 1 0 0
1 0 1 1 2 3 2 1 0 0 1 2 2 3 3 4 6 7 7 7 7 7 7 7 7 9 8 5 4 3 3 3 3 3 3 3 3 3 2 1 0 0 0
0 0 0 0 1 1 1 0 1 1 1 1 3 4 5 4 5 6 5 5 7 7 7 7 7 7 6 4 3 3 3 3 3 3 3 3 3 3 1 0 0 0 0
1 1 0 1 1 1 0 1 2 2 3 3 4 5 6 6 6 6 6 6 7 8 7 7 7 6 4 3 3 3 2 2 3 3 3 3 3 2 1 0 0 0 0
2 2 2 2 2 1 1 3 3 3 4 5 5 6 7 9 10 9 9 8 7 7 6 6 7 6 4 3 3 3 2 2 3 4 4 3 3 2 1 0 0 0 0
3 3 3 3 2 2 3 4 4 4 5 5 5 6 7 10 11 11 10 9 7 5 5 4 5 4 3 2 2 2 2 2 3 4 4 3 2 1 0 0 0 0 0
3 3 3 3 2 2 4 5 3 3 4 5 6 6 7 9 11 11 10 9 7 5 4 3 3 2 1 1 1 0 1 1 1 1 1 1 1 0 0 0 0 0 0
2 2 2 2 1 1 3 4 2 3 4 5 6 6 7 9 12 13 13 12 10 7 5 4 3 1 1 0 0 0 0 0 0 0 0 0 0 0 0 0 0 0 0
1 1 1 1 0 0 1 2 2 3 4 4 5 6 8 11 15 17 17 16 14 11 8 7 5 4 3 1 0 0 0 1 1 1 1 0 0 0 0 0 0 0 0
0 0 0 0 1 1 1 2 3 3 3 3 4 6 8 12 16 19 19 18 16 13 11 9 8 8 6 3 1 0 0 1 2 2 2 1 0 0 0 0 0 0 0
0 0 1 1 2 2 2 3 3 3 3 3 3 5 8 12 16 18 18 16 14 11 10 9 10 9 8 5 2 1 0 1 2 2 2 1 0 0 0 0 0 0 0
1 1 2 2 3 3 2 2 3 3 4 5 5 6 8 12 14 15 15 13 12 9 8 8 8 8 8 6 3 1 0 0 1 1 1 0 0 0 0 0 0 0 0
2 2 3 3 3 2 1 1 2 3 4 6 7 8 9 11 12 12 12 12 11 10 9 8 7 6 5 4 3 1 0 0 0 0 0 0 0 0 0 1 1 1 1
2 2 2 2 1 1 0 1 2 3 4 6 7 7 7 8 9 9 10 10 9 9 8 7 7 6 4 3 2 1 0 0 0 0 0 0 1 1 1 2 2 2 2
1 1 1 1 0 0 1 2 2 3 4 6 7 6 4 4 7 8 7 7 6 5 5 5 6 5 3 2 1 1 0 0 0 0 0 1 2 2 2 3 3 3 3

GEFSMW_con_prob3kmehi_318.txt.gz
EHI
3 3 3 3 3 6 10 12 12 13 13 9 6 4 3 3 4 7 7 5 3 4 5 5 5 4 4 5 4 3 2 1 0 0 0 0 0 1 0 0 0 0 0
3 3 4 3 3 6 9 11 12 13 14 11 8 5 3 2 4 6 7 6 4 4 4 5 4 4 4 4 4 4 2 0 0 1 1 1 1 1 1 1 1 1 1
2 3 4 4 4 5 7 9 11 12 14 13 10 6 5 5 5 6 7 7 5 4 4 4 4 3 4 4 5 5 2 1 1 2 2 2 3 2 2 2 2 2 2
1 2 4 5 4 4 5 7 9 11 14 17 15 12 10 8 7 7 7 7 6 4 3 3 3 3 4 5 5 4 2 2 2 3 3 4 4 3 3 3 2 2 2
1 2 5 6 5 4 3 5 8 12 16 20 21 19 15 11 9 8 7 7 7 6 6 6 7 6 6 6 6 4 3 3 3 3 4 5 5 5 5 4 3 2 1
4 5 7 7 5 3 3 5 9 13 16 18 20 19 16 12 9 8 9 9 8 9 9 10 12 11 10 9 9 7 5 5 5 5 5 6 7 7 6 5 3 1 1
5 6 8 7 5 4 6 9 12 15 15 14 13 13 12 10 9 9 9 9 8 9 10 12 15 16 14 13 13 11 8 8 8 6 6 6 7 6 6 4 3 1 1
5 6 7 7 6 7 10 12 15 16 14 12 11 11 10 9 10 11 11 10 8 9 10 13 16 17 15 14 13 11 10 10 9 7 6 6 6 6 6 5 4 2 1
6 6 6 7 8 9 11 14 17 18 16 14 14 14 13 13 13 14 14 12 11 11 13 16 17 16 14 14 14 12 11 11 10 8 7 7 7 7 7 6 5 4 4
6 6 6 7 8 10 13 17 20 21 18 15 14 14 14 15 15 15 14 13 14 14 15 16 16 15 15 16 17 15 13 12 10 10 10 9 8 8 8 7 7 6 6
8 6 6 8 9 11 14 17 19 17 14 11 10 10 10 12 13 12 11 13 16 16 15 15 14 14 14 16 18 16 14 12 11 11 11 11 11 11 10 8 7 8 9
10 7 6 8 9 10 10 11 11 9 7 6 6 7 7 9 11 11 11 13 15 15 14 15 15 14 14 16 16 14 12 12 12 12 13 13 14 14 13 10 8 8 9
11 9 8 8 7 6 5 4 3 3 4 5 5 6 8 11 13 13 13 14 14 14 15 16 17 16 15 16 15 14 12 11 12 13 14 13 14 16 16 14 11 9 8
14 12 11 10 8 5 3 2 1 2 3 4 4 5 9 12 14 15 15 16 15 14 15 16 16 15 15 16 15 14 12 11 11 13 13 11 11 14 16 15 13 11 10
14 13 13 12 13 11 9 5 3 3 4 3 3 5 8 11 13 15 17 18 18 17 16 15 14 13 13 13 13 12 12 11 10 11 11 10 8 9 11 10 10 10 10
11 11 12 14 16 17 16 12 8 7 7 6 5 7 9 11 14 15 15 16 17 18 18 16 14 12 11 9 8 8 10 11 10 10 11 10 9 8 7 6 5 6 6
7 9 12 15 16 16 16 15 12 12 12 11 10 11 13 15 15 14 13 12 14 17 18 17 14 12 9 6 4 4 6 9 10 10 11 12 10 10 9 7 4 3 3
8 9 12 13 13 14 14 14 13 14 14 14 14 14 15 17 17 16 13 12 13 16 18 17 15 12 9 5 2 1 3 6 8 9 11 12 11 10 10 9 7 5 5
13 11 10 11 13 15 16 16 14 14 15 14 12 12 13 15 16 16 14 13 14 16 18 18 16 13 9 5 1 0 2 5 7 8 8 8 8 7 6 7 9 8 7
16 13 11 11 14 16 18 17 15 14 13 12 10 9 10 12 14 14 14 14 14 15 17 18 17 14 11 6 2 0 2 5 5 5 4 3 3 2 2 5 8 8 7
17 15 13 12 13 15 16 15 12 11 12 12 12 11 10 10 11 13 15 15 14 15 16 17 17 15 12 8 3 1 2 3 5 4 4 3 1 0 1 3 6 7 6
13 14 13 11 11 12 13 13 13 12 12 13 14 14 13 11 12 14 16 17 17 17 18 18 18 16 13 9 4 1 1 2 5 6 5 4 2 1 0 1 3 3 2
9 10 10 10 9 9 11 13 14 13 12 13 13 14 13 13 13 14 15 17 18 18 18 18 17 16 14 11 7 3 1 1 3 5 4 3 2 1 0 0 0 1 2
9 8 8 9 10 10 11 13 14 14 12 12 12 12 12 12 13 14 14 15 16 16 16 16 16 15 14 12 10 8 5 3 3 3 3 2 2 2 2 2 2 3 3
8 8 9 10 11 12 12 12 12 13 12 11 11 10 10 11 12 13 13 12 11 11 12 12 12 13 12 11 10 9 6 4 3 4 4 4 5 5 6 7 7 6 6
6 8 9 11 12 12 12 10 10 12 12 10 9 9 9 10 12 14 13 10 7 7 7 7 7 9 10 8 6 5 4 3 3 3 5 6 6 7 8 9 9 9 9